QPF
0.03 0.04 0.05 0.05 0.07 0.08 0.08 0.09 0.10 0.11 0.11 0.12 0.14 0.14 0.13 0.15 0.17 0.19 0.18 0.18 0.19 0.21 0.29 0.29 0.34 0.41 0.41 0.38 0.41 0.43 0.36 0.29 0.33 0.30 0.18 0.11 0.09 0.07 0.04 0.03 0.02 0.01 0.01
0.04 0.05 0.05 0.04 0.04 0.03 0.03 0.03 0.02 0.03 0.03 0.04 0.07 0.09 0.10 0.11 0.09 0.08 0.10 0.14 0.17 0.15 0.17 0.19 0.22 0.30 0.34 0.31 0.33 0.36 0.33 0.27 0.32 0.33 0.25 0.13 0.08 0.06 0.05 0.04 0.03 0.02 0.02
0.04 0.04 0.03 0.02 0.01 0.01 0.00 0.00 0.00 0.00 0.00 0.01 0.01 0.02 0.03 0.02 0.01 0.02 0.03 0.06 0.08 0.08 0.09 0.11 0.15 0.18 0.24 0.22 0.24 0.30 0.32 0.28 0.29 0.33 0.33 0.23 0.13 0.10 0.08 0.05 0.03 0.02 0.02
0.03 0.02 0.02 0.01 0.00 0.00 0.00 0.00 0.00 0.00 0.00 0.00 0.00 0.00 0.00 0.00 0.00 0.00 0.00 0.01 0.01 0.02 0.03 0.05 0.08 0.11 0.14 0.13 0.16 0.21 0.23 0.24 0.23 0.24 0.27 0.27 0.21 0.14 0.07 0.04 0.03 0.02 0.02
0.02 0.01 0.01 0.00 0.00 0.00 0.00 0.00 0.00 0.00 0.00 0.00 0.00 0.00 0.00 0.00 0.00 0.00 0.00 0.00 0.00 0.00 0.01 0.01 0.02 0.04 0.04 0.05 0.07 0.08 0.10 0.13 0.14 0.14 0.14 0.15 0.13 0.09 0.06 0.03 0.02 0.02 0.02
0.00 0.00 0.00 0.00 0.00 0.00 0.00 0.00 0.00 0.00 0.00 0.00 0.00 0.00 0.00 0.00 0.00 0.00 0.00 0.00 0.00 0.00 0.00 0.00 0.00 0.01 0.01 0.01 0.02 0.03 0.04 0.05 0.05 0.06 0.07 0.08 0.07 0.05 0.04 0.03 0.02 0.02 0.03
0.00 0.00 0.00 0.00 0.00 0.00 0.00 0.00 0.00 0.00 0.00 0.00 0.00 0.00 0.00 0.00 0.00 0.00 0.00 0.00 0.00 0.00 0.00 0.00 0.00 0.00 0.00 0.01 0.01 0.02 0.02 0.03 0.03 0.03 0.04 0.04 0.03 0.03 0.03 0.02 0.02 0.03 0.03
0.00 0.00 0.00 0.00 0.00 0.00 0.00 0.00 0.00 0.00 0.00 0.00 0.00 0.00 0.00 0.00 0.00 0.00 0.00 0.00 0.00 0.00 0.00 0.00 0.00 0.00 0.00 0.01 0.01 0.02 0.02 0.02 0.03 0.02 0.03 0.03 0.03 0.03 0.03 0.03 0.03 0.03 0.04
0.00 0.00 0.00 0.00 0.00 0.00 0.00 0.00 0.00 0.00 0.00 0.00 0.00 0.00 0.00 0.00 0.00 0.00 0.00 0.00 0.00 0.00 0.00 0.00 0.00 0.00 0.01 0.01 0.02 0.03 0.03 0.04 0.04 0.04 0.05 0.04 0.04 0.05 0.05 0.05 0.05 0.05 0.06
0.00 0.00 0.00 0.00 0.00 0.00 0.00 0.00 0.00 0.00 0.00 0.00 0.00 0.00 0.00 0.00 0.00 0.00 0.00 0.00 0.00 0.00 0.00 0.00 0.00 0.00 0.01 0.02 0.03 0.03 0.04 0.06 0.07 0.09 0.09 0.09 0.08 0.08 0.09 0.10 0.12 0.11 0.09
0.00 0.00 0.00 0.00 0.00 0.00 0.00 0.00 0.00 0.00 0.00 0.00 0.00 0.00 0.00 0.00 0.00 0.00 0.00 0.00 0.00 0.00 0.00 0.00 0.00 0.00 0.01 0.02 0.04 0.05 0.07 0.10 0.13 0.16 0.15 0.14 0.14 0.13 0.12 0.13 0.15 0.14 0.11
0.00 0.00 0.00 0.00 0.00 0.00 0.00 0.00 0.00 0.00 0.00 0.00 0.00 0.00 0.00 0.00 0.00 0.00 0.00 0.00 0.00 0.00 0.00 0.00 0.00 0.00 0.01 0.02 0.03 0.05 0.09 0.13 0.16 0.18 0.19 0.20 0.19 0.16 0.15 0.14 0.13 0.12 0.09
0.00 0.00 0.00 0.00 0.00 0.00 0.00 0.00 0.00 0.00 0.00 0.00 0.00 0.00 0.00 0.00 0.00 0.00 0.00 0.00 0.00 0.00 0.00 0.00 0.00 0.01 0.03 0.04 0.06 0.08 0.13 0.17 0.22 0.27 0.29 0.26 0.21 0.17 0.15 0.12 0.09 0.07 0.05
0.00 0.00 0.00 0.00 0.00 0.00 0.00 0.00 0.00 0.00 0.00 0.00 0.00 0.00 0.00 0.00 0.00 0.00 0.00 0.00 0.00 0.00 0.00 0.00 0.01 0.02 0.02 0.05 0.08 0.12 0.16 0.20 0.22 0.25 0.28 0.27 0.21 0.15 0.12 0.09 0.06 0.04 0.02
0.00 0.00 0.00 0.00 0.00 0.00 0.00 0.00 0.00 0.00 0.00 0.00 0.00 0.00 0.00 0.00 0.00 0.00 0.00 0.00 0.00 0.00 0.00 0.00 0.01 0.02 0.02 0.03 0.06 0.08 0.10 0.13 0.14 0.14 0.14 0.14 0.14 0.13 0.09 0.06 0.04 0.02 0.01
0.00 0.00 0.00 0.00 0.00 0.00 0.00 0.00 0.00 0.00 0.00 0.00 0.00 0.01 0.01 0.01 0.01 0.00 0.00 0.00 0.00 0.00 0.00 0.00 0.01 0.01 0.02 0.03 0.03 0.03 0.03 0.05 0.06 0.09 0.10 0.08 0.07 0.07 0.07 0.05 0.04 0.03 0.02
0.01 0.00 0.00 0.00 0.00 0.00 0.00 0.00 0.00 0.00 0.00 0.00 0.00 0.01 0.02 0.01 0.01 0.01 0.01 0.00 0.00 0.00 0.00 0.00 0.00 0.01 0.02 0.04 0.04 0.02 0.02 0.02 0.02 0.03 0.06 0.05 0.04 0.03 0.02 0.02 0.02 0.02 0.02
0.01 0.01 0.00 0.00 0.00 0.00 0.00 0.00 0.00 0.00 0.00 0.01 0.01 0.02 0.03 0.03 0.03 0.03 0.02 0.01 0.00 0.00 0.00 0.00 0.00 0.00 0.01 0.02 0.04 0.03 0.02 0.02 0.03 0.02 0.02 0.01 0.01 0.01 0.01 0.01 0.00 0.00 0.00
0.00 0.00 0.00 0.00 0.00 0.00 0.00 0.00 0.00 0.00 0.00 0.01 0.02 0.04 0.05 0.05 0.05 0.05 0.05 0.04 0.02 0.00 0.00 0.00 0.00 0.00 0.00 0.00 0.01 0.01 0.01 0.02 0.01 0.01 0.01 0.01 0.00 0.01 0.00 0.00 0.00 0.00 0.00
0.00 0.00 0.00 0.00 0.00 0.00 0.00 0.00 0.00 0.00 0.00 0.01 0.02 0.04 0.06 0.07 0.08 0.09 0.10 0.08 0.05 0.02 0.00 0.00 0.00 0.00 0.00 0.00 0.00 0.00 0.00 0.00 0.00 0.00 0.01 0.01 0.00 0.00 0.00 0.00 0.00 0.00 0.00
0.00 0.00 0.00 0.00 0.00 0.00 0.00 0.00 0.00 0.00 0.00 0.00 0.01 0.03 0.06 0.09 0.11 0.14 0.15 0.13 0.09 0.05 0.02 0.00 0.00 0.00 0.00 0.00 0.00 0.00 0.00 0.00 0.00 0.00 0.00 0.00 0.00 0.00 0.00 0.00 0.00 0.00 0.00
0.00 0.00 0.00 0.00 0.00 0.00 0.00 0.00 0.00 0.00 0.00 0.00 0.01 0.02 0.05 0.09 0.13 0.17 0.20 0.20 0.16 0.09 0.04 0.01 0.00 0.00 0.00 0.00 0.00 0.00 0.00 0.00 0.00 0.00 0.00 0.00 0.00 0.00 0.00 0.00 0.00 0.00 0.00
0.00 0.00 0.00 0.00 0.00 0.00 0.00 0.00 0.00 0.00 0.00 0.00 0.01 0.02 0.05 0.09 0.15 0.21 0.27 0.29 0.25 0.15 0.06 0.02 0.01 0.00 0.00 0.00 0.00 0.00 0.00 0.00 0.00 0.00 0.00 0.00 0.00 0.00 0.00 0.00 0.00 0.00 0.00
0.00 0.00 0.00 0.00 0.00 0.00 0.00 0.00 0.00 0.00 0.00 0.00 0.01 0.02 0.05 0.10 0.15 0.20 0.27 0.33 0.33 0.22 0.10 0.03 0.01 0.01 0.00 0.00 0.00 0.00 0.00 0.00 0.00 0.00 0.00 0.00 0.00 0.00 0.00 0.00 0.00 0.00 0.00
0.00 0.00 0.00 0.00 0.00 0.00 0.00 0.00 0.00 0.00 0.00 0.01 0.01 0.02 0.05 0.10 0.16 0.21 0.26 0.31 0.31 0.25 0.13 0.05 0.02 0.01 0.00 0.00 0.00 0.00 0.00 0.00 0.00 0.00 0.00 0.00 0.00 0.00 0.00 0.00 0.00 0.00 0.00
0.00 0.00 0.00 0.00 0.00 0.00 0.00 0.00 0.00 0.00 0.00 0.01 0.01 0.02 0.04 0.09 0.17 0.22 0.27 0.31 0.32 0.28 0.17 0.09 0.04 0.02 0.00 0.00 0.00 0.00 0.00 0.00 0.00 0.00 0.00 0.00 0.00 0.00 0.00 0.00 0.00 0.00 0.00
MSLP
1010.94 1010.95 1010.90 1010.79 1010.64 1010.49 1010.37 1010.33 1010.39 1010.53 1010.75 1010.99 1011.23 1011.41 1011.53 1011.55 1011.49 1011.36 1011.17 1010.95 1010.71 1010.48 1010.24 1010.03 1009.84 1009.68 1009.59 1009.56 1009.61 1009.74 1009.95 1010.20 1010.45 1010.68 1010.83 1010.89 1010.82 1010.64 1010.35 1009.98 1009.58 1009.17 1008.79
1011.26 1011.25 1011.17 1011.01 1010.81 1010.59 1010.40 1010.29 1010.30 1010.41 1010.61 1010.86 1011.12 1011.33 1011.47 1011.51 1011.45 1011.30 1011.08 1010.81 1010.52 1010.22 1009.94 1009.66 1009.42 1009.22 1009.08 1009.01 1009.02 1009.13 1009.31 1009.56 1009.83 1010.08 1010.27 1010.36 1010.34 1010.19 1009.93 1009.58 1009.18 1008.76 1008.37
1011.39 1011.38 1011.31 1011.15 1010.93 1010.69 1010.46 1010.31 1010.28 1010.36 1010.55 1010.81 1011.09 1011.33 1011.50 1011.56 1011.50 1011.34 1011.10 1010.79 1010.45 1010.10 1009.75 1009.41 1009.11 1008.84 1008.63 1008.50 1008.47 1008.53 1008.69 1008.92 1009.19 1009.46 1009.69 1009.84 1009.87 1009.77 1009.56 1009.25 1008.88 1008.48 1008.10
1011.33 1011.35 1011.31 1011.19 1010.99 1010.74 1010.52 1010.35 1010.30 1010.37 1010.56 1010.82 1011.11 1011.38 1011.57 1011.65 1011.62 1011.46 1011.20 1010.87 1010.49 1010.08 1009.67 1009.26 1008.87 1008.52 1008.24 1008.04 1007.94 1007.95 1008.07 1008.28 1008.56 1008.86 1009.13 1009.32 1009.42 1009.39 1009.24 1008.99 1008.67 1008.33 1007.98
1011.16 1011.21 1011.21 1011.13 1010.97 1010.76 1010.55 1010.39 1010.33 1010.39 1010.57 1010.83 1011.14 1011.42 1011.64 1011.75 1011.74 1011.60 1011.35 1011.00 1010.59 1010.13 1009.65 1009.16 1008.69 1008.25 1007.88 1007.59 1007.42 1007.37 1007.46 1007.66 1007.94 1008.26 1008.57 1008.82 1008.98 1009.03 1008.95 1008.78 1008.53 1008.25 1007.96
1010.97 1011.03 1011.07 1011.03 1010.92 1010.74 1010.56 1010.41 1010.35 1010.40 1010.57 1010.83 1011.13 1011.42 1011.66 1011.80 1011.82 1011.70 1011.46 1011.11 1010.68 1010.18 1009.64 1009.07 1008.52 1007.99 1007.52 1007.16 1006.91 1006.80 1006.85 1007.02 1007.31 1007.65 1008.00 1008.31 1008.53 1008.66 1008.66 1008.57 1008.40 1008.20 1007.98
1010.87 1010.94 1010.99 1010.98 1010.89 1010.75 1010.57 1010.43 1010.36 1010.40 1010.54 1010.78 1011.06 1011.35 1011.60 1011.76 1011.80 1011.70 1011.49 1011.15 1010.70 1010.18 1009.59 1008.96 1008.32 1007.71 1007.16 1006.71 1006.39 1006.22 1006.23 1006.39 1006.67 1007.02 1007.41 1007.77 1008.06 1008.26 1008.34 1008.34 1008.26 1008.14 1008.00
1010.98 1011.01 1011.06 1011.05 1010.97 1010.82 1010.65 1010.49 1010.40 1010.40 1010.50 1010.69 1010.94 1011.20 1011.43 1011.59 1011.65 1011.58 1011.38 1011.06 1010.63 1010.09 1009.47 1008.79 1008.09 1007.41 1006.79 1006.26 1005.88 1005.66 1005.62 1005.76 1006.03 1006.40 1006.81 1007.21 1007.56 1007.82 1007.99 1008.06 1008.07 1008.04 1007.99
1011.34 1011.33 1011.33 1011.29 1011.18 1011.02 1010.82 1010.63 1010.49 1010.43 1010.46 1010.58 1010.77 1010.98 1011.18 1011.32 1011.37 1011.32 1011.15 1010.85 1010.43 1009.90 1009.27 1008.58 1007.84 1007.11 1006.43 1005.85 1005.41 1005.15 1005.07 1005.18 1005.44 1005.81 1006.23 1006.66 1007.06 1007.38 1007.61 1007.77 1007.86 1007.92 1007.96
1011.94 1011.87 1011.81 1011.72 1011.57 1011.36 1011.11 1010.87 1010.66 1010.52 1010.47 1010.50 1010.59 1010.72 1010.85 1010.95 1010.99 1010.94 1010.79 1010.52 1010.13 1009.63 1009.03 1008.34 1007.61 1006.86 1006.15 1005.54 1005.06 1004.76 1004.64 1004.72 1004.95 1005.31 1005.74 1006.18 1006.61 1006.98 1007.27 1007.50 1007.68 1007.82 1007.94
1012.74 1012.60 1012.47 1012.31 1012.09 1011.82 1011.52 1011.21 1010.92 1010.69 1010.54 1010.45 1010.43 1010.46 1010.50 1010.54 1010.54 1010.48 1010.35 1010.12 1009.78 1009.34 1008.79 1008.14 1007.44 1006.72 1006.02 1005.39 1004.90 1004.56 1004.41 1004.45 1004.65 1004.98 1005.40 1005.84 1006.29 1006.69 1007.03 1007.32 1007.57 1007.78 1007.99
1013.61 1013.41 1013.21 1012.97 1012.69 1012.36 1011.99 1011.62 1011.25 1010.93 1010.67 1010.46 1010.32 1010.23 1010.17 1010.12 1010.08 1010.00 1009.88 1009.70 1009.42 1009.06 1008.59 1008.03 1007.39 1006.72 1006.06 1005.46 1004.96 1004.61 1004.43 1004.43 1004.59 1004.89 1005.27 1005.70 1006.14 1006.56 1006.94 1007.27 1007.57 1007.85 1008.12
1014.44 1014.18 1013.91 1013.62 1013.27 1012.89 1012.47 1012.04 1011.61 1011.20 1010.83 1010.52 1010.25 1010.04 1009.87 1009.75 1009.64 1009.55 1009.44 1009.30 1009.10 1008.83 1008.47 1008.01 1007.48 1006.90 1006.31 1005.75 1005.28 1004.93 1004.73 1004.69 1004.80 1005.05 1005.39 1005.79 1006.21 1006.62 1007.02 1007.38 1007.72 1008.05 1008.36
1015.11 1014.80 1014.48 1014.13 1013.75 1013.32 1012.87 1012.40 1011.92 1011.45 1011.00 1010.59 1010.22 1009.90 1009.63 1009.42 1009.26 1009.15 1009.05 1008.96 1008.84 1008.67 1008.42 1008.10 1007.69 1007.22 1006.72 1006.24 1005.81 1005.47 1005.26 1005.19 1005.26 1005.45 1005.74 1006.09 1006.48 1006.87 1007.26 1007.64 1008.00 1008.35 1008.69
1015.55 1015.20 1014.84 1014.45 1014.03 1013.59 1013.12 1012.63 1012.13 1011.63 1011.13 1010.65 1010.19 1009.78 1009.43 1009.15 1008.94 1008.80 1008.71 1008.66 1008.61 1008.54 1008.42 1008.22 1007.95 1007.61 1007.22 1006.83 1006.46 1006.15 1005.95 1005.86 1005.88 1006.03 1006.26 1006.56 1006.90 1007.26 1007.64 1008.00 1008.36 1008.72 1009.07
1015.74 1015.35 1014.94 1014.52 1014.09 1013.64 1013.18 1012.70 1012.21 1011.69 1011.17 1010.65 1010.14 1009.67 1009.25 1008.91 1008.65 1008.48 1008.40 1008.37 1008.38 1008.39 1008.38 1008.31 1008.16 1007.96 1007.69 1007.40 1007.11 1006.86 1006.68 1006.59 1006.59 1006.69 1006.87 1007.12 1007.42 1007.74 1008.08 1008.42 1008.77 1009.11 1009.46
1015.67 1015.24 1014.80 1014.36 1013.92 1013.48 1013.04 1012.59 1012.11 1011.62 1011.10 1010.57 1010.04 1009.53 1009.06 1008.67 1008.37 1008.16 1008.06 1008.04 1008.08 1008.15 1008.22 1008.25 1008.23 1008.15 1008.01 1007.84 1007.65 1007.47 1007.34 1007.27 1007.27 1007.35 1007.49 1007.70 1007.95 1008.23 1008.53 1008.84 1009.16 1009.49 1009.81
1015.39 1014.91 1014.44 1013.98 1013.54 1013.12 1012.71 1012.29 1011.86 1011.40 1010.91 1010.39 1009.86 1009.33 1008.83 1008.40 1008.04 1007.80 1007.65 1007.61 1007.65 1007.75 1007.87 1007.98 1008.06 1008.10 1008.09 1008.04 1007.97 1007.89 1007.83 1007.81 1007.84 1007.92 1008.05 1008.23 1008.44 1008.68 1008.95 1009.23 1009.52 1009.82 1010.12
1014.95 1014.42 1013.92 1013.45 1013.01 1012.61 1012.22 1011.85 1011.46 1011.04 1010.59 1010.10 1009.58 1009.04 1008.52 1008.05 1007.65 1007.34 1007.14 1007.05 1007.05 1007.14 1007.28 1007.44 1007.60 1007.75 1007.86 1007.95 1008.01 1008.06 1008.11 1008.17 1008.25 1008.37 1008.51 1008.67 1008.87 1009.09 1009.32 1009.58 1009.84 1010.12 1010.39
1014.39 1013.83 1013.30 1012.81 1012.38 1011.99 1011.63 1011.29 1010.94 1010.57 1010.15 1009.69 1009.19 1008.66 1008.13 1007.61 1007.15 1006.77 1006.50 1006.33 1006.28 1006.32 1006.45 1006.65 1006.87 1007.12 1007.36 1007.59 1007.80 1007.99 1008.18 1008.35 1008.52 1008.68 1008.86 1009.04 1009.24 1009.44 1009.66 1009.90 1010.14 1010.40 1010.67
1013.75 1013.16 1012.61 1012.11 1011.68 1011.29 1010.95 1010.64 1010.32 1009.99 1009.61 1009.18 1008.70 1008.18 1007.62 1007.07 1006.55 1006.10 1005.73 1005.48 1005.35 1005.35 1005.45 1005.66 1005.94 1006.28 1006.64 1007.02 1007.39 1007.75 1008.08 1008.38 1008.66 1008.91 1009.14 1009.35 1009.56 1009.76 1009.98 1010.21 1010.45 1010.70 1010.96
1013.03 1012.42 1011.86 1011.36 1010.92 1010.54 1010.20 1009.90 1009.61 1009.31 1008.96 1008.56 1008.10 1007.58 1007.02 1006.43 1005.86 1005.33 1004.88 1004.54 1004.33 1004.27 1004.35 1004.57 1004.90 1005.33 1005.82 1006.34 1006.88 1007.41 1007.90 1008.34 1008.73 1009.07 1009.36 1009.62 1009.85 1010.07 1010.29 1010.52 1010.77 1011.03 1011.29
1012.23 1011.62 1011.05 1010.54 1010.09 1009.70 1009.37 1009.08 1008.80 1008.52 1008.20 1007.83 1007.39 1006.88 1006.31 1005.70 1005.08 1004.49 1003.97 1003.56 1003.29 1003.18 1003.24 1003.47 1003.86 1004.37 1004.98 1005.66 1006.35 1007.04 1007.68 1008.26 1008.77 1009.20 1009.56 1009.86 1010.12 1010.36 1010.59 1010.83 1011.09 1011.36 1011.65
1011.33 1010.72 1010.15 1009.62 1009.16 1008.77 1008.43 1008.14 1007.87 1007.61 1007.32 1006.97 1006.56 1006.07 1005.51 1004.90 1004.26 1003.63 1003.07 1002.61 1002.29 1002.15 1002.20 1002.46 1002.90 1003.50 1004.23 1005.03 1005.87 1006.70 1007.48 1008.18 1008.79 1009.30 1009.72 1010.06 1010.34 1010.60 1010.85 1011.11 1011.38 1011.68 1011.99
1010.33 1009.71 1009.12 1008.59 1008.11 1007.70 1007.35 1007.06 1006.81 1006.57 1006.31 1006.00 1005.63 1005.18 1004.65 1004.05 1003.42 1002.79 1002.21 1001.73 1001.39 1001.25 1001.31 1001.59 1002.09 1002.77 1003.59 1004.50 1005.46 1006.40 1007.29 1008.09 1008.77 1009.34 1009.80 1010.18 1010.49 1010.76 1011.03 1011.31 1011.61 1011.93 1012.27
1009.21 1008.57 1007.96 1007.40 1006.90 1006.48 1006.13 1005.84 1005.61 1005.40 1005.18 1004.93 1004.61 1004.22 1003.74 1003.19 1002.59 1001.98 1001.42 1000.95 1000.63 1000.49 1000.58 1000.90 1001.44 1002.18 1003.08 1004.07 1005.11 1006.13 1007.09 1007.95 1008.68 1009.29 1009.78 1010.18 1010.51 1010.80 1011.09 1011.39 1011.72 1012.07 1012.44
Thickness
5782 5784 5783 5782 5779 5774 5770 5767 5763 5760 5755 5751 5747 5744 5742 5742 5740 5739 5738 5737 5735 5734 5734 5734 5734 5734 5733 5733 5733 5731 5727 5725 5722 5716 5716 5719 5722 5723 5725 5727 5729 5732 5735
5772 5774 5775 5775 5772 5768 5764 5760 5757 5753 5750 5746 5743 5740 5738 5736 5734 5732 5730 5729 5728 5727 5727 5727 5727 5727 5726 5727 5727 5725 5722 5721 5718 5712 5707 5706 5710 5716 5721 5722 5723 5726 5729
5764 5765 5766 5765 5764 5760 5758 5755 5751 5748 5744 5740 5736 5732 5729 5726 5724 5722 5721 5721 5720 5720 5719 5720 5720 5720 5719 5720 5720 5719 5716 5715 5714 5711 5705 5699 5700 5705 5711 5715 5717 5719 5721
5759 5759 5759 5758 5757 5755 5753 5749 5745 5741 5737 5734 5729 5724 5718 5714 5713 5712 5711 5711 5711 5710 5711 5711 5712 5712 5712 5713 5714 5714 5713 5712 5710 5708 5707 5704 5703 5698 5700 5706 5709 5711 5714
5753 5753 5754 5753 5751 5749 5745 5741 5738 5734 5731 5728 5724 5718 5713 5710 5707 5704 5702 5701 5701 5701 5701 5702 5703 5704 5706 5707 5708 5709 5709 5708 5707 5705 5703 5699 5697 5697 5695 5695 5699 5702 5706
5749 5749 5749 5747 5744 5741 5738 5735 5732 5729 5726 5723 5719 5714 5709 5705 5700 5697 5694 5693 5691 5691 5692 5693 5694 5696 5698 5700 5702 5703 5703 5703 5703 5702 5700 5697 5694 5693 5691 5691 5691 5691 5695
5744 5742 5741 5738 5736 5734 5732 5730 5727 5723 5721 5717 5713 5709 5704 5700 5696 5692 5688 5685 5683 5682 5682 5683 5684 5686 5689 5692 5694 5696 5697 5697 5697 5697 5696 5694 5693 5692 5689 5686 5684 5683 5685
5736 5735 5734 5732 5730 5730 5728 5724 5721 5717 5714 5710 5706 5702 5699 5694 5690 5686 5682 5679 5676 5675 5675 5674 5675 5678 5680 5683 5686 5688 5690 5691 5690 5690 5689 5688 5687 5686 5684 5682 5678 5674 5674
5724 5725 5725 5724 5722 5720 5718 5715 5712 5709 5706 5703 5699 5695 5692 5688 5685 5681 5676 5673 5670 5669 5668 5668 5669 5670 5672 5674 5677 5679 5681 5682 5683 5683 5682 5681 5680 5679 5678 5677 5675 5670 5666
5711 5711 5710 5709 5708 5706 5704 5702 5700 5697 5696 5694 5691 5689 5685 5682 5678 5674 5671 5667 5665 5663 5662 5661 5662 5663 5665 5667 5669 5671 5673 5673 5674 5674 5673 5673 5672 5671 5670 5669 5668 5667 5664
5694 5694 5693 5693 5693 5692 5691 5689 5687 5685 5684 5683 5681 5679 5677 5674 5671 5667 5665 5662 5659 5657 5655 5655 5655 5656 5657 5659 5661 5663 5664 5664 5665 5665 5664 5664 5663 5662 5662 5661 5660 5659 5658
5679 5679 5679 5679 5678 5676 5675 5673 5673 5672 5672 5672 5672 5670 5669 5666 5664 5661 5658 5655 5653 5651 5649 5648 5648 5648 5649 5651 5652 5654 5656 5656 5656 5656 5656 5655 5655 5654 5654 5653 5653 5651 5651
5666 5664 5663 5662 5660 5659 5659 5659 5658 5658 5659 5661 5662 5662 5661 5659 5657 5655 5652 5649 5647 5645 5643 5642 5641 5641 5641 5642 5643 5644 5645 5645 5645 5646 5646 5646 5646 5645 5645 5644 5643 5642 5642
5649 5649 5647 5645 5645 5644 5644 5645 5645 5645 5647 5649 5651 5652 5653 5653 5651 5649 5646 5643 5641 5639 5637 5636 5634 5633 5633 5633 5633 5634 5633 5633 5633 5634 5635 5636 5636 5636 5635 5634 5633 5632 5631
5635 5634 5632 5631 5631 5631 5631 5631 5631 5632 5634 5635 5638 5641 5644 5645 5644 5642 5639 5637 5634 5633 5631 5629 5628 5627 5626 5625 5624 5624 5623 5622 5622 5623 5624 5625 5626 5626 5626 5625 5623 5623 5622
5621 5620 5618 5617 5616 5615 5615 5616 5616 5618 5618 5620 5623 5628 5631 5633 5634 5633 5632 5629 5628 5626 5625 5623 5621 5620 5619 5617 5616 5616 5615 5613 5613 5613 5613 5613 5614 5614 5614 5614 5615 5615 5614
5606 5604 5602 5601 5600 5599 5598 5598 5599 5600 5601 5603 5607 5611 5615 5619 5622 5623 5622 5621 5620 5619 5618 5616 5615 5614 5612 5610 5609 5607 5606 5605 5604 5604 5604 5603 5602 5604 5604 5604 5604 5603 5604
5591 5589 5587 5586 5584 5582 5581 5581 5581 5582 5582 5584 5587 5591 5596 5602 5606 5609 5611 5612 5612 5611 5611 5610 5609 5607 5605 5604 5602 5600 5597 5595 5594 5595 5595 5594 5593 5595 5596 5595 5594 5594 5594
5574 5572 5569 5567 5565 5563 5562 5561 5562 5562 5562 5564 5567 5571 5575 5581 5588 5593 5598 5601 5602 5603 5603 5604 5603 5602 5599 5598 5595 5593 5590 5587 5585 5586 5587 5588 5587 5587 5589 5589 5588 5587 5586
5556 5552 5550 5547 5544 5543 5540 5538 5540 5541 5542 5545 5547 5550 5554 5559 5567 5576 5583 5589 5593 5596 5596 5597 5597 5597 5594 5592 5590 5588 5585 5581 5578 5578 5579 5581 5582 5583 5584 5585 5584 5583 5581
5537 5534 5530 5528 5526 5524 5520 5519 5520 5521 5525 5527 5529 5532 5535 5540 5548 5557 5566 5575 5583 5587 5588 5590 5590 5590 5590 5588 5585 5583 5582 5579 5576 5576 5575 5576 5577 5578 5579 5581 5581 5580 5578
5516 5512 5508 5509 5508 5505 5501 5502 5505 5509 5510 5512 5514 5517 5520 5523 5531 5538 5549 5561 5572 5579 5582 5583 5583 5583 5584 5584 5581 5579 5579 5578 5575 5573 5572 5573 5573 5574 5575 5576 5575 5575 5575
5499 5497 5494 5495 5496 5494 5492 5492 5498 5499 5500 5501 5503 5506 5509 5511 5515 5522 5533 5547 5560 5572 5578 5580 5581 5579 5578 5578 5578 5575 5575 5574 5573 5571 5570 5569 5569 5570 5571 5571 5571 5571 5572
5489 5488 5486 5487 5490 5491 5490 5490 5493 5494 5493 5494 5496 5498 5500 5502 5504 5509 5520 5534 5549 5563 5572 5578 5579 5578 5575 5575 5575 5572 5570 5569 5568 5566 5565 5564 5564 5565 5565 5565 5565 5566 5567
5486 5484 5483 5485 5488 5489 5489 5490 5490 5489 5488 5489 5490 5492 5493 5495 5497 5503 5512 5524 5539 5555 5567 5576 5580 5579 5577 5577 5576 5574 5571 5569 5567 5563 5561 5560 5560 5561 5560 5560 5560 5560 5560
5486 5485 5485 5486 5488 5488 5488 5489 5487 5485 5485 5486 5487 5487 5488 5490 5492 5497 5508 5521 5534 5549 5559 5570 5577 5581 5581 5575 5572 5572 5570 5567 5564 5564 5561 5560 5560 5560 5559 5558 5557 5556 5556